Duchifat 3
1 44854U 19089C   25085.75823982  .00064839  00000-0  16422-2 0  9993
2 44854  36.9458 108.3821 0005347 269.2616  90.7526 15.38650176291380
TO-108
1 44881U 19093C   25085.85924105  .00003255  00000-0  38373-3 0  9993
2 44881  97.7966 163.0696 0015210 114.9563 245.3234 14.85355200284987
FloripaSat 1
1 44885U 19093G   25085.79994921  .00017655  00000-0  15253-2 0  9993
2 44885  97.8180 173.3121 0012176  97.3513 262.9093 14.97224178285558
RS-44
1 44909U 19096E   25085.50151036  .00000051  00000-0  15065-3 0  9998
2 44909  82.5165 277.1719 0218459 111.0554 251.4060 12.79739657245088
UPMSat 2
1 46276U 20061E   25085.23151957  .00091696  00000-0  12138-2 0  9995
2 46276  97.2534 157.6380 0001787 155.9229 204.2111 15.57997850253695
SALSAT
1 46495U 20068K   25085.47345064  .00020191  00000-0  90707-3 0  9996
2 46495  97.8541  60.1412 0013984  67.5134 292.7580 15.21103618247104
CubeSX-Sirius-HSE
1 47951U 21022V   25085.87534413  .00202710  00000-0  22104-2 0  9991
2 47951  97.4269 354.8190 0007462 167.8280 192.3159 15.62694687222062
CubeSX-HSE
1 47952U 21022W   25085.84099705  .00203574  00000-0  21717-2 0  9997
2 47952  97.4270 354.9975 0007764 162.3937 197.7592 15.63253887222076
GRBAlpha
1 47959U 21022AD  25085.80838300  .00195536  00000-0  21122-2 0  9990
2 47959  97.4261 355.1030 0007412 167.0958 193.0492 15.62960768220891
Orbicraft-Zorkiy
1 47960U 21022AE  25085.74435986  .00604158  00000-0  23011-2 0  9992
2 47960  97.4208 359.0326 0008787 146.8756 213.3066 15.86053297221803
TUBIN
1 48900U 21059X   25085.58699532  .00063132  00000-0  10289-2 0  9992
2 48900  97.6696 249.1777 0004273 167.3221 192.8139 15.52407529208374
LEDSAT
1 49069U 21073D   25085.87918719  .00101864  00000-0  17965-2 0  9991
2 49069  97.3957 164.8676 0010316 349.7574  10.3465 15.49980249199827
CUTE
1 49263U 21088D   25085.57066104  .00026908  00000-0  60157-3 0  9999
2 49263  97.4573 159.8129 0010137 151.0430 209.1382 15.43423135192842
TeikyoSat 4
1 49396U 21102B   25085.54230285  .00005318  00000-0  35691-3 0  9990
2 49396  97.4199 126.6611 0013423  37.2822 322.9335 15.07157088185241
Z-Sat
1 49399U 21102E   25085.80314419  .00012839  00000-0  71751-3 0  9997
2 49399  97.3908 129.5673 0018322   8.5882 351.5659 15.13483605185668
KOSEN 1
1 49402U 21102H   25085.40853063  .00018115  00000-0  86930-3 0  9999
2 49402  97.3819 132.0580 0015559 347.3925  12.6918 15.18820837185874
HO-113
1 50466U 21131B   25085.82630675  .00002083  00000-0  66628-3 0  9990
2 50466  98.5089 175.5616 0004104  17.3661 342.7667 14.40667422170689
IRIS-A
1 51044U 22002BN  25085.63291704  .00180542  00000-0  15931-2 0  9993
2 51044  97.3346 162.1032 0002100 137.0858 223.0567 15.68133105178035
Foresail-1
1 52766U 22057AL  25085.30372895  .00171114  00000-0  16253-2 0  9993
2 52766  97.6015 229.6692 0006177 215.0990 144.9863 15.66312866158013
SNUGLITE 2
1 52899U 22065F   25085.39869715  .00004426  00000-0  87400-3 0  9994
2 52899  98.1546 228.1675 0007225 357.7699   2.3469 14.62899782145494
IO-117
1 53106U 22080B   25051.21822557 -.00000003  00000-0  00000+0 0  9995
2 53106  70.1434 106.3440 0008542  48.0089 312.1297  6.42557744 61200
UmKA 1 (RS40S)
1 57172U 23091G   25085.83127249  .00016824  00000-0  92454-3 0  9991
2 57172  97.5683 141.6271 0013978 228.1783 131.8255 15.14088732 96169
CubeBel-2 (EU11S)
1 57175U 23091K   25085.84090260  .00024895  00000-0  12475-2 0  9998
2 57175  97.5681 142.3703 0011940 236.9272 123.0815 15.17289570 96212
VERONIKA
1 58261U 23174F   25085.84074687  .00144337  00000-0  23564-2 0  9997
2 58261  97.4199 168.5897 0006254 298.8394  61.2230 15.52039205 77029
KAFASAT
1 58317U 23174BP  25085.78111520  .01443497  11453-2  30509-2 0  9993
2 58317  97.3995 173.4545 0011023 267.8310  92.1706 15.98970665 77365
ENSO
1 58470U 23185J   25085.82474641  .00089351  00000-0  17698-2 0  9998
2 58470  97.3815 159.0141 0006666 349.8444  10.2669 15.46719830 73446
EIRSAT-1
1 58472U 23185L   25085.85187706  .00122952  00000-0  19861-2 0  9995
2 58472  97.3794 160.0026 0005458 345.4462  14.6633 15.52419244 73518
SONATE-2
1 59112U 24043Q   25085.62250495  .00034223  00000-0  10941-2 0  9995
2 59112  97.5014 215.5220 0011362  24.1160 336.0612 15.32300773 58847
MO-122
1 60209U 24125G   25085.52080954  .00035259  00000-0  11117-2 0  9991
2 60209  97.2902 298.1028 0021196  49.6076 310.7012 15.32577073 40445
GRBBeta
1 60237U 24128C   25085.71934777  .00011463  00000-0  87324-3 0  9992
2 60237  61.9943 340.4073 0044810  41.3907 319.0564 15.01679708 38951
Curium One
1 60242U 24128H   25085.13362338  .00020790  00000-0  14954-2 0  9993
2 60242  61.9844 341.7232 0044756  36.8222 323.5929 15.03477937 38885
ROBUSTA-3A
1 60243U 24128J   25085.11494708  .00020923  00000-0  15224-2 0  9998
2 60243  61.9911 342.3813 0042956  34.4130 325.9729 15.03107224 38877
CatSat
1 60246U 24125J   25085.12673725  .00019259  00000-0  67811-3 0  9997
2 60246  97.2687 297.7155 0044179   5.0974 355.0706 15.28403565 38450
HYPERVIEW-1G (RS66S)
1 61772U 24199AP  25085.84269709  .00048199  00000-0  15743-2 0  9996
2 61772  97.3667 314.9997 0016467 100.0753 260.2347 15.31462120 65500
AO-123
1 61781U 24199AY  25085.91242580  .00018889  00000-0  71308-3 0  9995
2 61781  97.3675 314.6189 0018022 101.5237 258.8027 15.26910466 65481
ZIMSAT 2
1 61783U 24199BA  25085.89285719  .00070931  00000-0  21208-2 0  9994
2 61783  97.3657 315.2290 0017267  98.9159 261.4039 15.34159599 68673
POEM 4 (BGS ARPIT)
1 62461U 24253C   25084.83309700  .00827718  37853-3  97815-3 0  9999
2 62461  55.2094 206.6978 0003294 325.3646 141.6903 16.08068309 13471
HADES-R (SO-124)
1 62690U 25009CK  25085.66716562  .00063467  00000-0  27327-2 0  9997
2 62690  97.4142 167.0952 0001624 340.0029  20.1144 15.22353927 10724
HYDRA-T
1 62692U 25009CM  25085.66231564  .00063753  00000-0  27330-2 0  9995
2 62692  97.4141 167.1011 0001508 329.0655  31.0492 15.22502089 10727
Fram2Ham
1 90000U 25090A   25091.24166955 -.00012090  00000-0 -25444-3 0    65
2 90000  90.0015 341.9186 0001128  47.8434 312.3114 15.45593922    33
